Terminal Aerodrome Forecast
Issued by NWS North Platte, NE

Home | Current Version | Previous Version | Text Only | Print | Product List | Glossary Off
Versions: 1 2 3 4 5 6 7 8 9 10 11 12 13 14 15 16 17 18

000
FTUS43 KLBF 210500
TAFVTN
TAF
KVTN 210522Z 2106/2206 VRB06KT P6SM SKC
     FM220200 12004KT P6SM SKC=

USA.gov is the U.S. government's official web portal to all federal, state and local government web resources and services.